TimeEST,TemperatureF,Dew PointF,Humidity,Sea Level PressureIn,VisibilityMPH,Wind Direction,Wind SpeedMPH,Gust SpeedMPH,PrecipitationIn,Events,Conditions,WindDirDegrees,DateUTC
12:15 AM,32.0,32.0,100,29.99,10.0,WNW,3.5,-,N/A,,Clear,300,2014-02-28 05:15:00
12:35 AM,32.0,32.0,100,29.99,10.0,Calm,Calm,-,N/A,,Clear,0,2014-02-28 05:35:00
12:55 AM,30.2,30.2,100,30.00,10.0,Calm,Calm,-,N/A,,Clear,0,2014-02-28 05:55:00
1:15 AM,30.2,30.2,100,30.00,10.0,Calm,Calm,-,N/A,,Clear,0,2014-02-28 06:15:00
1:35 AM,30.2,30.2,100,30.00,10.0,Calm,Calm,-,N/A,,Clear,0,2014-02-28 06:35:00
1:55 AM,30.2,30.2,100,29.99,10.0,Calm,Calm,-,N/A,,Clear,0,2014-02-28 06:55:00
2:15 AM,30.2,30.2,100,29.99,10.0,Calm,Calm,-,N/A,,Clear,0,2014-02-28 07:15:00
2:35 AM,28.4,28.4,100,30.00,10.0,Calm,Calm,-,N/A,,Clear,0,2014-02-28 07:35:00
2:55 AM,30.2,30.2,100,30.00,10.0,NW,3.5,-,N/A,,Clear,320,2014-02-28 07:55:00
3:15 AM,30.2,30.2,100,30.00,10.0,NW,3.5,-,N/A,,Clear,320,2014-02-28 08:15:00
3:35 AM,30.2,30.2,100,30.01,10.0,NNW,4.6,-,N/A,,Clear,330,2014-02-28 08:35:00
3:55 AM,30.2,30.2,100,30.01,10.0,NNW,4.6,-,N/A,,Clear,330,2014-02-28 08:55:00
4:15 AM,28.4,28.4,100,30.01,10.0,NNW,3.5,-,N/A,,Clear,330,2014-02-28 09:15:00
4:35 AM,28.4,28.4,100,30.02,10.0,Calm,Calm,-,N/A,,Clear,0,2014-02-28 09:35:00
4:55 AM,28.4,28.4,100,30.03,10.0,NW,3.5,-,N/A,,Clear,310,2014-02-28 09:55:00
5:15 AM,28.4,28.4,100,30.04,10.0,Calm,Calm,-,N/A,,Clear,0,2014-02-28 10:15:00
5:35 AM,26.6,26.6,100,30.04,10.0,Calm,Calm,-,N/A,,Clear,0,2014-02-28 10:35:00
5:55 AM,26.6,26.6,100,30.06,10.0,Calm,Calm,-,N/A,,Clear,0,2014-02-28 10:55:00
6:15 AM,28.4,28.4,100,30.06,10.0,Calm,Calm,-,N/A,,Clear,0,2014-02-28 11:15:00
6:35 AM,26.6,26.6,100,30.06,10.0,Calm,Calm,-,N/A,,Clear,0,2014-02-28 11:35:00
6:55 AM,26.6,26.6,100,30.06,10.0,Calm,Calm,-,N/A,,Clear,0,2014-02-28 11:55:00
7:15 AM,26.6,26.6,100,30.08,10.0,Calm,Calm,-,N/A,,Clear,0,2014-02-28 12:15:00
7:35 AM,28.4,28.4,100,30.09,10.0,Calm,Calm,-,N/A,,Clear,0,2014-02-28 12:35:00
7:55 AM,30.2,30.2,100,30.10,10.0,Calm,Calm,-,N/A,,Clear,0,2014-02-28 12:55:00
8:15 AM,33.8,33.8,100,30.09,10.0,Calm,Calm,-,N/A,,Clear,0,2014-02-28 13:15:00
8:35 AM,39.2,32.0,75,30.10,10.0,NNE,4.6,-,N/A,,Clear,20,2014-02-28 13:35:00
8:55 AM,41.0,30.2,65,30.11,10.0,NE,5.8,-,N/A,,Clear,50,2014-02-28 13:55:00
9:15 AM,42.8,30.2,61,30.12,10.0,NNE,4.6,-,N/A,,Clear,30,2014-02-28 14:15:00
9:35 AM,44.6,30.2,57,30.13,10.0,NE,4.6,-,N/A,,Clear,40,2014-02-28 14:35:00
9:55 AM,46.4,28.4,50,30.13,10.0,NE,3.5,-,N/A,,Clear,50,2014-02-28 14:55:00
10:15 AM,50.0,28.4,43,30.13,10.0,NE,3.5,-,N/A,,Clear,50,2014-02-28 15:15:00
10:35 AM,50.0,28.4,43,30.14,10.0,ENE,3.5,-,N/A,,Clear,60,2014-02-28 15:35:00
10:55 AM,51.8,26.6,38,30.15,10.0,NE,3.5,-,N/A,,Clear,40,2014-02-28 15:55:00
11:15 AM,53.6,28.4,38,30.15,10.0,NE,3.5,-,N/A,,Clear,50,2014-02-28 16:15:00
11:35 AM,55.4,28.4,36,30.15,10.0,East,4.6,-,N/A,,Clear,100,2014-02-28 16:35:00
11:55 AM,55.4,28.4,36,30.15,10.0,NNE,3.5,-,N/A,,Clear,20,2014-02-28 16:55:00
12:15 PM,55.4,28.4,36,30.14,10.0,Calm,Calm,-,N/A,,Clear,0,2014-02-28 17:15:00
12:35 PM,57.2,28.4,33,30.13,10.0,Calm,Calm,-,N/A,,Clear,0,2014-02-28 17:35:00
12:55 PM,59.0,28.4,31,30.12,10.0,Calm,Calm,-,N/A,,Clear,0,2014-02-28 17:55:00
1:15 PM,59.0,28.4,31,30.11,10.0,Calm,Calm,-,N/A,,Clear,0,2014-02-28 18:15:00
1:35 PM,59.0,28.4,31,30.10,10.0,Calm,Calm,-,N/A,,Clear,0,2014-02-28 18:35:00
1:55 PM,59.0,28.4,31,30.10,10.0,West,4.6,-,N/A,,Clear,270,2014-02-28 18:55:00
2:15 PM,60.8,30.2,31,30.09,10.0,NNE,3.5,-,N/A,,Clear,20,2014-02-28 19:15:00
2:35 PM,60.8,30.2,31,30.09,10.0,Calm,Calm,-,N/A,,Clear,0,2014-02-28 19:35:00
2:55 PM,60.8,30.2,31,30.08,10.0,Calm,Calm,-,N/A,,Clear,0,2014-02-28 19:55:00
3:15 PM,62.6,30.2,30,30.08,10.0,East,4.6,-,N/A,,Clear,100,2014-02-28 20:15:00
3:35 PM,62.6,30.2,30,30.08,10.0,ESE,8.1,-,N/A,,Clear,120,2014-02-28 20:35:00
3:55 PM,62.6,30.2,30,30.09,10.0,SSE,3.5,-,N/A,,Clear,160,2014-02-28 20:55:00
4:10 PM,60.8,28.4,29,30.09,10.0,Calm,Calm,-,N/A,,Clear,0,2014-02-28 21:10:00
4:35 PM,60.8,28.4,29,30.09,10.0,SSE,3.5,-,N/A,,Clear,160,2014-02-28 21:35:00
4:55 PM,60.8,30.2,31,30.10,10.0,Calm,Calm,-,N/A,,Clear,0,2014-02-28 21:55:00
5:15 PM,60.8,30.2,31,30.10,10.0,SE,3.5,-,N/A,,Clear,140,2014-02-28 22:15:00
5:35 PM,59.0,44.6,59,30.11,10.0,SE,10.4,-,N/A,,Clear,130,2014-02-28 22:35:00
5:55 PM,55.4,44.6,67,30.11,10.0,ESE,10.4,-,N/A,,Clear,110,2014-02-28 22:55:00
6:15 PM,53.6,44.6,72,30.11,10.0,ESE,10.4,16.1,N/A,,Clear,110,2014-02-28 23:15:00
6:35 PM,51.8,44.6,76,30.13,10.0,ESE,5.8,-,N/A,,Clear,110,2014-02-28 23:35:00
6:55 PM,51.8,46.4,82,30.14,10.0,East,10.4,-,N/A,,Clear,100,2014-02-28 23:55:00
7:15 PM,50.0,46.4,87,30.15,10.0,ESE,11.5,-,N/A,,Clear,110,2014-03-01 00:15:00
7:35 PM,48.2,46.4,93,30.15,10.0,ESE,6.9,10.4,N/A,,Clear,110,2014-03-01 00:35:00
7:55 PM,46.4,46.4,100,30.16,10.0,East,8.1,-,N/A,,Clear,100,2014-03-01 00:55:00
8:15 PM,46.4,46.4,100,30.16,10.0,East,5.8,-,N/A,,Mostly Cloudy,100,2014-03-01 01:15:00
8:35 PM,46.4,46.4,100,30.17,10.0,East,4.6,-,N/A,,Overcast,100,2014-03-01 01:35:00
8:55 PM,46.4,46.4,100,30.17,10.0,East,4.6,-,N/A,,Overcast,90,2014-03-01 01:55:00
9:15 PM,46.4,46.4,100,30.16,10.0,East,5.8,-,N/A,,Overcast,90,2014-03-01 02:15:00
9:35 PM,46.4,46.4,100,30.18,10.0,East,4.6,-,N/A,,Overcast,90,2014-03-01 02:35:00
9:55 PM,46.4,46.4,100,30.18,10.0,East,5.8,-,N/A,,Overcast,90,2014-03-01 02:55:00
10:15 PM,48.2,46.4,93,30.18,10.0,East,5.8,-,N/A,,Overcast,90,2014-03-01 03:15:00
10:35 PM,48.2,46.4,93,30.18,10.0,East,5.8,-,N/A,,Overcast,90,2014-03-01 03:35:00
10:55 PM,48.2,46.4,93,30.18,10.0,East,4.6,-,N/A,,Overcast,100,2014-03-01 03:55:00
11:15 PM,48.2,46.4,93,30.19,10.0,Calm,Calm,-,N/A,,Overcast,0,2014-03-01 04:15:00
11:35 PM,48.2,46.4,93,30.20,10.0,Calm,Calm,-,N/A,,Overcast,0,2014-03-01 04:35:00
11:55 PM,48.2,46.4,93,30.20,10.0,East,5.8,-,N/A,,Overcast,90,2014-03-01 04:55:00